User: anonymous   Login
Location: Unspecified
(0.0000°N, 0.0000°E)
Time: 03:13:12
(UTC+00:00)
Language:

ATS 6 - Orbit

View from above orbital plane
View from above orbital plane
View from above satellite
View from above satellite

Ground track
Ground track

The orbit data is extracted from the following two-line orbital elements,

1  7318U 74039A   18147.28889713 -.00000056 +00000-0 +00000-0 0  9991
2  7318 008.9429 303.6762 0027317 231.0485 137.0205 01.01978112091999
Epoch (UTC): 27 May 2018 06:56:00
Eccentricity: 0.0027317
inclination: 8.9429°
perigee height: 35200 km
apogee height: 35428 km
right ascension of ascending node: 303.6762°
argument of perigee: 231.0485°
revolutions per day: 1.01978112
mean anomaly at epoch: 137.0205°
orbit number at epoch: 9199

The dashed part of the orbit path shows where the satellite is in the earth's shadow,  

DLR